Wind_Speed
27 29 30 30 30 30 30 29 29 30 30 30 30 28 27 26 25 25 26 30 32 32 31 29 28 26 25 23 22 20 18 18 17 17 17 16 16 16 15 14 12 10 8
30 30 31 31 31 31 31 31 30 30 30 30 29 29 29 28 27 26 26 29 32 34 34 32 31 30 29 27 25 23 22 20 20 19 19 19 18 17 16 15 14 13 11
30 30 31 32 32 32 32 32 32 31 31 30 29 29 29 29 28 28 28 28 31 34 35 35 34 33 32 30 29 27 25 24 23 22 21 21 21 20 19 17 16 15 13
31 31 32 32 32 32 32 32 32 31 31 30 30 30 29 29 30 30 29 29 30 33 35 36 35 34 34 33 31 30 28 26 25 24 24 23 23 23 22 20 19 17 16
31 32 32 32 33 33 33 33 32 32 32 31 30 30 30 30 30 31 30 30 30 32 35 37 36 35 35 35 33 32 30 29 27 26 25 24 25 25 24 23 22 20 19
31 32 32 33 33 33 34 34 34 33 33 33 32 31 31 31 30 31 31 30 30 32 34 37 38 37 37 36 35 35 33 31 29 28 27 26 25 26 27 26 25 23 22
31 32 32 33 34 34 35 35 35 35 35 34 34 33 33 33 32 31 31 30 30 32 34 36 37 38 38 38 36 36 35 33 32 30 29 28 27 27 28 28 28 26 25
30 31 31 32 33 33 34 34 34 35 35 35 35 34 33 33 33 33 32 31 31 32 33 35 37 37 39 39 38 37 36 35 35 32 30 29 28 28 28 29 30 29 28
29 30 30 31 32 32 33 33 34 34 34 35 35 34 34 34 34 33 32 31 31 33 34 35 36 37 40 40 40 39 39 37 36 34 32 31 30 29 28 29 30 31 30
29 29 29 30 30 31 32 32 33 33 33 34 34 34 34 34 34 34 34 33 32 33 34 35 36 36 39 41 41 41 41 39 37 36 35 33 32 30 29 28 30 31 30
29 29 29 30 30 31 32 32 32 32 32 33 34 34 34 34 34 34 34 35 33 34 34 35 36 37 39 41 42 42 42 41 40 39 38 36 34 32 31 30 30 31 31
29 30 31 32 32 33 33 34 34 34 34 34 34 34 34 34 34 34 34 35 35 34 35 36 37 38 39 41 42 43 44 43 42 41 40 38 37 35 33 32 31 31 31
31 32 33 34 34 35 36 36 36 36 36 35 35 35 35 35 34 34 33 34 35 35 36 37 37 38 39 41 43 44 44 44 43 43 42 41 39 38 35 34 33 32 31
32 34 35 36 36 37 37 37 38 38 38 37 37 37 37 36 36 35 34 34 35 36 37 37 37 37 39 41 43 44 44 44 43 44 43 43 42 40 37 35 34 33 32
34 35 37 37 38 38 38 38 38 39 38 39 39 39 39 39 38 37 36 36 35 36 36 37 38 38 39 42 44 45 44 44 44 44 43 43 43 41 39 37 35 34 33
36 37 37 38 39 39 39 39 39 39 39 39 39 40 40 41 41 40 39 38 38 38 38 38 39 40 40 42 44 45 46 45 45 45 44 44 43 42 39 37 35 34 33
38 38 38 38 39 39 38 38 38 38 38 38 38 39 40 41 42 42 42 41 40 40 39 40 40 41 40 41 43 44 46 47 47 46 46 45 44 43 40 37 35 34 33
40 40 39 39 38 38 37 37 37 37 37 37 38 38 39 41 42 43 43 43 43 43 42 42 42 41 40 40 43 43 45 48 48 47 46 45 44 43 40 38 36 35 33
42 42 41 40 39 37 37 36 36 36 36 36 37 38 39 41 42 44 45 45 45 45 45 45 44 43 42 41 42 44 46 48 49 49 47 46 45 43 41 39 37 35 33
44 43 42 41 39 37 36 36 35 35 36 36 37 37 39 40 42 44 45 46 47 48 48 47 47 46 44 43 43 45 45 48 50 50 48 47 46 44 41 40 39 36 34
45 44 43 41 39 38 37 37 36 35 35 36 37 38 39 40 42 45 46 47 49 50 50 50 50 49 47 45 44 46 46 48 50 51 49 48 47 45 43 41 39 37 35
46 45 43 41 40 39 38 37 36 35 35 35 36 37 39 40 42 44 46 49 50 51 52 53 53 52 51 48 46 47 47 48 50 51 49 49 48 46 44 43 41 39 37
46 45 43 41 40 39 38 37 36 34 35 35 36 37 38 39 41 43 45 48 50 52 54 55 56 55 54 52 49 47 47 48 50 51 51 50 49 47 46 44 42 40 38
46 44 42 41 40 39 38 37 36 35 35 35 36 37 38 39 40 41 44 47 50 52 55 56 57 58 57 56 53 49 48 48 50 52 53 52 51 49 47 45 44 42 39
45 44 42 41 40 39 38 37 36 35 34 34 35 36 37 38 40 41 43 45 48 52 55 58 59 59 59 58 57 53 51 51 50 52 53 52 51 50 48 46 45 43 41
44 43 42 40 39 39 38 37 36 34 33 33 33 34 35 36 38 40 41 44 47 50 54 58 61 62 61 60 59 56 54 52 51 53 53 53 52 51 49 47 46 44 42
Wind_Direction
286 285 286 286 286 285 284 282 282 281 280 280 279 277 275 274 271 266 255 242 235 232 230 229 229 228 226 223 221 221 222 222 221 221 220 218 216 215 217 219 220 222 224
285 285 286 285 284 283 282 281 281 280 279 278 277 275 273 271 269 265 261 249 239 233 231 230 229 230 229 227 225 224 224 224 224 223 223 223 221 220 219 220 221 222 222
285 284 284 283 282 280 280 279 279 278 276 275 273 271 271 271 268 264 261 256 245 237 233 231 230 230 230 229 228 227 227 226 226 226 225 225 224 223 222 221 222 223 223
287 285 284 283 281 279 278 278 277 276 275 273 271 269 269 268 267 263 262 258 249 241 235 233 232 231 231 230 229 227 227 228 229 228 227 226 226 225 224 223 223 223 223
289 287 285 283 282 281 280 279 277 275 273 271 268 267 266 266 265 263 261 257 249 242 236 232 231 232 232 231 230 228 227 228 229 228 228 227 227 226 226 225 225 225 225
292 290 288 286 284 283 281 280 278 276 273 271 268 266 265 264 262 259 259 257 250 244 237 233 232 232 232 231 230 229 228 227 228 228 228 227 226 226 226 226 226 226 226
294 292 290 288 287 285 283 280 278 276 274 271 268 266 264 262 260 257 256 255 249 244 238 234 232 232 231 229 227 228 227 227 227 227 228 228 227 227 227 226 226 227 227
296 294 292 290 287 285 283 281 279 277 275 272 269 266 264 262 259 257 253 251 247 242 239 236 232 231 230 229 227 226 225 226 225 227 228 228 228 229 229 227 227 226 227
297 295 292 291 289 287 285 283 280 278 275 272 270 266 263 260 258 257 252 248 245 241 238 235 232 231 230 227 226 225 225 225 225 225 226 228 229 229 229 229 228 227 228
298 297 295 293 291 289 287 285 282 279 276 273 270 267 263 260 257 255 253 248 243 240 236 233 232 231 230 226 225 224 224 222 223 223 224 227 230 230 230 230 229 228 228
302 300 299 297 295 292 289 286 283 280 276 273 270 267 263 260 257 254 251 248 244 240 237 233 233 232 230 227 224 223 222 222 223 224 225 227 228 230 230 231 231 230 231
307 305 302 300 297 294 291 287 283 279 276 272 269 266 263 259 256 253 249 244 243 241 237 233 232 231 229 227 225 223 223 223 224 225 225 226 227 229 230 231 232 233 233
312 309 306 303 299 295 291 287 283 278 275 271 268 264 261 258 255 252 248 243 240 238 236 234 231 229 227 226 225 224 224 223 224 224 224 226 227 229 230 231 233 234 234
315 312 309 305 301 297 292 288 283 278 274 270 265 262 258 255 253 251 248 244 240 237 236 234 231 230 227 226 224 223 223 222 223 223 224 225 227 229 230 231 233 234 234
317 314 310 306 302 298 293 288 283 278 274 269 264 260 256 253 250 248 246 243 240 237 235 234 232 230 228 226 224 221 220 220 221 221 222 224 226 228 229 231 232 233 233
320 317 312 307 303 299 294 289 284 279 274 269 264 259 255 252 248 246 244 242 240 237 234 234 233 231 229 226 223 221 219 219 220 220 220 223 225 226 228 229 230 230 231
322 319 315 310 305 301 296 291 286 281 276 271 265 259 255 251 248 245 243 241 239 237 234 233 233 230 229 227 223 221 220 218 218 218 219 222 223 225 226 226 226 226 227
324 320 317 312 307 302 298 293 288 283 277 272 266 261 255 251 248 245 242 240 239 236 234 231 231 230 228 226 223 221 220 217 217 217 218 219 221 222 223 223 223 223 224
325 322 319 315 309 304 299 295 290 285 279 273 267 262 256 252 249 245 243 241 238 236 234 230 230 230 228 226 223 221 220 218 217 216 216 217 218 220 221 221 221 221 221
325 323 320 316 312 307 302 297 293 287 281 275 270 264 259 254 250 246 244 241 239 236 233 231 229 228 227 225 223 220 218 218 216 215 215 216 217 218 218 218 218 218 218
324 323 320 316 312 308 304 299 295 290 284 279 273 267 262 257 252 248 245 242 239 235 232 230 229 228 227 226 223 219 217 216 215 214 213 214 215 215 216 216 216 216 215
324 323 320 317 313 310 306 301 297 292 287 282 276 270 265 259 254 250 246 242 239 235 231 229 228 227 226 225 224 220 218 216 215 213 212 212 213 214 214 214 214 214 213
323 322 320 317 314 311 308 304 300 295 290 284 279 273 268 262 256 251 247 243 239 234 231 228 227 226 224 224 223 221 218 217 215 213 211 211 211 212 213 212 212 212 212
323 322 320 318 316 313 310 307 303 299 294 287 281 275 270 266 260 253 248 243 239 235 231 228 227 225 223 222 222 222 219 216 215 214 212 210 211 211 211 211 211 211 212
323 322 321 319 317 315 313 309 305 302 298 292 286 279 272 266 261 254 249 244 239 235 231 228 225 224 223 221 220 220 219 216 215 213 212 211 211 211 211 210 210 211 212
323 323 321 320 319 318 315 311 307 304 300 296 291 285 276 267 261 256 251 245 239 235 231 228 225 223 222 220 218 218 217 217 217 214 211 210 210 211 210 210 210 211 212
Height
5859 5858 5857 5856 5855 5855 5854 5854 5853 5853 5853 5853 5853 5853 5854 5855 5856 5857 5859 5861 5865 5868 5871 5874 5877 5879 5882 5885 5888 5891 5894 5896 5899 5901 5904 5906 5908 5910 5912 5914 5915 5917 5918
5853 5852 5851 5849 5848 5847 5847 5846 5846 5846 5846 5846 5846 5847 5847 5848 5849 5850 5852 5854 5858 5861 5864 5867 5870 5874 5876 5880 5883 5886 5889 5892 5895 5898 5900 5903 5905 5907 5909 5911 5913 5915 5917
5846 5845 5843 5842 5841 5840 5840 5839 5839 5839 5839 5839 5839 5840 5840 5841 5842 5843 5845 5847 5850 5853 5857 5860 5863 5867 5870 5874 5877 5881 5884 5887 5890 5893 5896 5899 5901 5904 5907 5909 5911 5913 5915
5838 5837 5836 5834 5833 5832 5832 5831 5831 5831 5831 5831 5832 5832 5833 5834 5835 5836 5837 5839 5842 5845 5849 5853 5856 5860 5864 5867 5871 5875 5878 5882 5885 5888 5891 5894 5897 5900 5903 5906 5908 5910 5912
5830 5829 5827 5826 5825 5824 5823 5823 5822 5822 5822 5823 5824 5825 5825 5826 5827 5828 5830 5831 5834 5837 5841 5845 5849 5852 5856 5860 5864 5868 5872 5876 5879 5883 5886 5889 5892 5895 5899 5902 5904 5907 5909
5822 5821 5819 5817 5816 5815 5814 5814 5814 5813 5814 5814 5815 5816 5817 5818 5819 5820 5822 5823 5826 5828 5832 5836 5840 5845 5848 5852 5857 5861 5865 5869 5873 5877 5881 5884 5887 5890 5894 5897 5900 5903 5906
5815 5813 5811 5809 5808 5807 5805 5805 5804 5804 5804 5804 5806 5807 5808 5809 5810 5811 5813 5815 5817 5820 5823 5827 5832 5836 5840 5845 5849 5854 5858 5863 5867 5871 5875 5878 5882 5885 5888 5892 5895 5899 5902
5807 5805 5803 5801 5800 5798 5797 5796 5795 5795 5795 5795 5796 5797 5799 5800 5801 5802 5803 5806 5808 5811 5815 5819 5823 5827 5832 5837 5842 5846 5851 5856 5861 5865 5869 5873 5876 5879 5883 5886 5889 5893 5897
5800 5798 5796 5794 5792 5790 5789 5787 5786 5786 5786 5785 5786 5787 5788 5790 5792 5793 5794 5797 5799 5802 5806 5809 5814 5818 5823 5828 5833 5839 5844 5849 5853 5858 5862 5867 5871 5874 5877 5880 5884 5887 5891
5793 5791 5788 5786 5784 5782 5780 5779 5778 5777 5777 5776 5776 5777 5778 5780 5782 5784 5786 5788 5790 5794 5797 5801 5805 5809 5814 5819 5825 5831 5836 5841 5846 5851 5856 5860 5864 5868 5872 5875 5878 5882 5885
5785 5783 5781 5778 5776 5774 5772 5770 5769 5768 5768 5767 5767 5767 5769 5770 5771 5774 5776 5778 5781 5785 5788 5792 5796 5800 5805 5810 5816 5822 5828 5833 5839 5844 5848 5853 5858 5862 5866 5870 5873 5876 5880
5777 5775 5772 5770 5767 5765 5763 5761 5760 5759 5758 5758 5758 5758 5759 5760 5762 5764 5766 5768 5772 5776 5779 5783 5787 5791 5796 5801 5807 5813 5819 5825 5831 5836 5841 5846 5851 5855 5860 5864 5867 5871 5874
5769 5766 5764 5761 5758 5755 5753 5751 5749 5748 5748 5748 5748 5748 5749 5750 5752 5754 5757 5759 5763 5767 5770 5774 5778 5782 5787 5792 5798 5804 5810 5816 5822 5827 5833 5838 5844 5848 5853 5857 5861 5865 5868
5762 5758 5754 5751 5748 5745 5742 5740 5738 5737 5737 5737 5737 5738 5739 5740 5742 5745 5748 5750 5754 5758 5761 5765 5768 5773 5778 5783 5789 5795 5801 5807 5813 5819 5825 5830 5836 5841 5846 5851 5855 5859 5862
5755 5750 5746 5741 5737 5734 5731 5729 5727 5725 5725 5725 5725 5726 5728 5729 5732 5735 5738 5741 5745 5748 5752 5756 5760 5764 5768 5774 5779 5785 5791 5798 5804 5810 5816 5822 5828 5833 5839 5843 5848 5852 5856
5747 5741 5736 5731 5727 5723 5720 5717 5715 5714 5713 5713 5713 5714 5716 5718 5720 5724 5727 5730 5734 5739 5743 5747 5750 5755 5759 5764 5770 5775 5782 5788 5795 5801 5807 5814 5819 5825 5831 5836 5841 5845 5850
5738 5732 5727 5721 5716 5712 5708 5705 5703 5701 5701 5700 5701 5702 5704 5705 5708 5712 5715 5720 5724 5728 5733 5737 5741 5745 5750 5754 5760 5766 5772 5778 5785 5791 5798 5805 5811 5817 5823 5828 5834 5839 5843
5729 5723 5717 5711 5706 5701 5697 5694 5691 5689 5688 5688 5688 5689 5691 5693 5696 5699 5703 5707 5712 5717 5722 5727 5731 5735 5740 5745 5750 5756 5762 5768 5775 5782 5789 5796 5802 5809 5815 5821 5827 5832 5837
5719 5713 5707 5701 5695 5691 5686 5683 5680 5677 5676 5675 5675 5676 5678 5680 5683 5686 5690 5694 5699 5704 5710 5716 5720 5725 5730 5735 5741 5746 5752 5759 5765 5772 5779 5787 5794 5801 5807 5814 5820 5825 5830
5710 5703 5696 5690 5685 5680 5676 5672 5669 5666 5664 5663 5663 5663 5664 5666 5669 5672 5676 5681 5686 5691 5697 5704 5709 5715 5720 5726 5731 5737 5743 5749 5755 5762 5770 5777 5785 5793 5800 5806 5812 5818 5823
5700 5693 5686 5680 5674 5669 5665 5660 5657 5654 5652 5650 5649 5649 5650 5652 5655 5658 5661 5666 5671 5677 5683 5690 5697 5704 5710 5716 5722 5728 5733 5739 5746 5753 5761 5769 5777 5785 5792 5799 5806 5812 5818
5690 5683 5676 5670 5664 5658 5653 5649 5645 5642 5639 5637 5636 5635 5636 5637 5640 5642 5646 5650 5656 5662 5669 5676 5684 5691 5698 5705 5711 5717 5723 5730 5738 5745 5752 5760 5768 5776 5784 5792 5799 5805 5811
5680 5672 5665 5659 5653 5647 5642 5637 5633 5630 5627 5624 5622 5621 5621 5622 5624 5627 5630 5634 5640 5646 5654 5662 5670 5678 5686 5694 5700 5707 5714 5720 5728 5735 5742 5750 5759 5768 5776 5784 5791 5798 5805
5670 5662 5655 5648 5642 5636 5630 5626 5621 5617 5614 5611 5609 5607 5607 5607 5608 5611 5614 5619 5624 5631 5638 5646 5656 5663 5671 5679 5688 5696 5703 5710 5717 5724 5732 5741 5751 5759 5768 5776 5784 5791 5798
5660 5652 5645 5638 5632 5625 5619 5614 5609 5605 5601 5598 5595 5593 5592 5592 5592 5594 5599 5603 5608 5614 5621 5629 5638 5647 5656 5666 5676 5684 5692 5700 5707 5715 5724 5734 5743 5752 5760 5768 5776 5784 5791
5650 5642 5635 5628 5621 5615 5609 5603 5598 5593 5589 5585 5582 5579 5577 5576 5577 5578 5582 5587 5592 5598 5603 5612 5621 5631 5641 5652 5662 5672 5681 5690 5698 5707 5716 5725 5734 5744 5752 5760 5769 5777 5784